Change the Weather History Date:

Monday, March 24, 2014

  Actual Average Record
Temperature  
Mean Temperature 38 °F -  
Max Temperature 51 °F 57 °F 81 °F (1967)
Min Temperature 24 °F 36 °F 14 °F (1974)
Degree Days  
Heating Degree Days 28    
Moisture  
Dew Point 25 °F    
Average Humidity 73    
Maximum Humidity 96    
Minimum Humidity 38    
Precipitation  
Precipitation 0.00 in - - ()
Sea Level Pressure  
Sea Level Pressure 30.26 in    
Wind  
Wind Speed 4 mph (North)    
Max Wind Speed 15 mph    
Max Gust Speed 21 mph    
Visibility 7 miles    
Events Fog , Rain , Snow    
Averages and records for this station are not official NWS values.
T = Trace of Precipitation, MM = Missing Value Source: NWS Daily Summary

Daily Weather History Graph

Daily Weather History Graph

Search for Another Location

Airport or City:

Trip Planner

Search our weather history database for the weather conditions in past years. The results will help you decide how hot, cold, wet, or windy it might be!

Date:

Astronomy

Mar. 24, 2014 Rise Set
Actual Time 7:19 AM CDT 7:37 PM CDT
Civil Twilight 6:53 AM CDT 8:03 PM CDT
Nautical Twilight 6:22 AM CDT 8:34 PM CDT
Astronomical Twilight 5:51 AM CDT 9:05 PM CDT
Moon 2:43 AM CDT (3/24) 1:10 PM CDT (3/24)
Length of Visible Light 13h 10m
Length of Day
12h 18m
Last Quarter, 43% of the Moon is Illuminated
Mar 24
Last Quarter
Mar 30
New
Apr 7
First Quarter
Apr 15
Full
Apr 22
Last Quarter

Hourly Weather History & Observations

Time (CDT) Temp. Windchill Dew Point Humidity Pressure Visibility Wind Dir Wind Speed Gust Speed Precip Events Conditions
12:52 AM 26.1 °F - 18.0 °F 71% 30.31 in 10.0 mi Calm Calm - N/A   Clear
1:52 AM 26.1 °F - 18.0 °F 71% 30.29 in 10.0 mi Calm Calm - N/A   Clear
2:52 AM 25.0 °F - 18.0 °F 75% 30.29 in 10.0 mi Calm Calm - N/A   Clear
3:52 AM 25.0 °F - 18.0 °F 75% 30.27 in 10.0 mi Calm Calm - N/A   Mostly Cloudy
4:52 AM 32.0 °F 26.4 °F 19.0 °F 59% 30.25 in 10.0 mi ENE 5.8 mph - N/A   Overcast
5:52 AM 32.0 °F 27.5 °F 18.0 °F 56% 30.25 in 10.0 mi Variable 4.6 mph - N/A   Overcast
6:52 AM 33.1 °F 28.7 °F 19.0 °F 56% 30.23 in 10.0 mi ESE 4.6 mph - N/A   Overcast
7:52 AM 34.0 °F 29.8 °F 19.0 °F 54% 30.24 in 10.0 mi East 4.6 mph - N/A   Overcast
8:52 AM 37.0 °F 33.3 °F 19.9 °F 50% 30.24 in 10.0 mi Variable 4.6 mph - N/A   Clear
9:52 AM 42.1 °F 38.4 °F 21.9 °F 45% 30.23 in 10.0 mi SSE 5.8 mph - N/A   Clear
10:52 AM 44.1 °F 42.5 °F 24.1 °F 45% 30.22 in 10.0 mi ESE 3.5 mph - N/A   Clear
11:52 AM 48.0 °F - 26.1 °F 42% 30.22 in 10.0 mi West 4.6 mph - N/A   Mostly Cloudy
12:52 PM 51.1 °F - 26.1 °F 38% 30.21 in 10.0 mi WNW 8.1 mph - N/A   Overcast
1:52 PM 50.0 °F - 26.1 °F 39% 30.19 in 10.0 mi NW 9.2 mph - N/A   Overcast
2:52 PM 48.9 °F - 25.0 °F 39% 30.18 in 10.0 mi NNW 10.4 mph - N/A   Overcast
3:52 PM 46.0 °F 39.6 °F 23.0 °F 40% 30.20 in 10.0 mi North 15.0 mph - N/A   Overcast
4:52 PM 37.0 °F 29.3 °F 32.0 °F 82% 30.24 in 7.0 mi North 11.5 mph 20.7 mph 0.00 in Rain Light Rain
5:08 PM 36.0 °F 28.5 °F 33.1 °F 89% 30.22 in 5.0 mi North 10.4 mph - 0.00 in Rain Light Rain
5:15 PM 36.0 °F 28.5 °F 33.1 °F 89% 30.23 in 4.0 mi North 10.4 mph - 0.00 in Rain Light Rain
5:33 PM 35.1 °F 27.4 °F 32.0 °F 89% 30.23 in 4.0 mi North 10.4 mph - 0.00 in Snow Light Snow
5:52 PM 35.1 °F 28.6 °F 32.0 °F 89% 30.26 in 5.0 mi North 8.1 mph - 0.00 in   Overcast
6:52 PM 36.0 °F 29.0 °F 32.0 °F 86% 30.26 in 6.0 mi North 9.2 mph - 0.00 in   Overcast
7:52 PM 35.1 °F 31.0 °F 33.1 °F 92% 30.26 in 6.0 mi NNW 4.6 mph - N/A   Overcast
8:52 PM 33.1 °F 24.4 °F 30.9 °F 92% 30.28 in 5.0 mi North 11.5 mph 17.3 mph N/A   Scattered Clouds
8:57 PM 34.0 °F 26.6 °F 30.9 °F 89% 30.27 in 5.0 mi North 9.2 mph - N/A   Mostly Cloudy
9:32 PM 32.0 °F - 30.0 °F 92% 30.28 in 7.0 mi Calm Calm - N/A   Scattered Clouds
9:52 PM 30.9 °F 27.5 °F 27.0 °F 85% 30.30 in 6.0 mi North 3.5 mph - N/A   Clear
10:52 PM 27.0 °F - 25.0 °F 92% 30.30 in 3.0 mi Calm Calm - N/A   Clear
11:01 PM 27.0 °F - 24.1 °F 89% 30.29 in 3.0 mi Calm Calm - N/A   Scattered Clouds
11:10 PM 26.1 °F - 23.0 °F 88% 30.29 in 4.0 mi Calm Calm - N/A   Mostly Cloudy
11:12 PM 26.1 °F - 23.0 °F 88% 30.29 in 1.2 mi Calm Calm - N/A   Mostly Cloudy
11:19 PM 27.0 °F - 23.0 °F 85% 30.28 in 0.2 mi Calm Calm - N/A Fog Light Freezing Fog
11:52 PM 25.0 °F - 23.0 °F 92% 30.30 in 1.0 mi Calm Calm - N/A   Mist
11:54 PM 24.1 °F - 23.0 °F 96% 30.28 in 1.8 mi Calm Calm - N/A   Overcast
11:56 PM 24.1 °F - 23.0 °F 96% 30.28 in 3.0 mi Calm Calm - N/A   Overcast